AirNav   Bose Proflight Series 2 Wireless Aviation Headset
 
 1015 users online  

MA36 Snow Airport
Ipswich, Massachusetts, USA

GOING TO IPSWICH?


FAA INFORMATION EFFECTIVE 07 NOVEMBER 2019

Location

FAA Identifier: MA36
Lat/Long: 42-39-59.3370N 070-51-10.6800W
42-39.988950N 070-51.178000W
42.6664825,-70.8529667
(estimated)
Elevation: 61 ft. / 18.6 m (surveyed)
Variation: 16W (1985)
From city: 1 mile SW of IPSWICH, MA
Time zone: UTC -5 (UTC -4 during Daylight Saving Time)
Zip code: 01938

Airport Operations

Airport use: Private use. Permission required prior to landing
Activation date: 09/1950
Control tower: no
ARTCC: BOSTON CENTER
FSS: BRIDGEPORT FLIGHT SERVICE STATION
Attendance: CONTINUOUS
Wind indicator: no
Segmented circle: no

Airport Communications

WX ASOS at BVY (6 nm SW): PHONE 978-921-5042
WX ASOS at LWM (12 nm W): PHONE 978-687-8017
WX ASOS at BOS (19 nm S): PHONE 617-567-5762

Nearby radio navigation aids

VOR radial/distance  VOR name  Freq  Var
LWMr128/11.6LAWRENCE VOR/DME112.5015W
BOSr034/19.5BOSTON VOR/DME112.7016W
PSMr198/25.1PEASE VOR/DME116.5016W
MHTr133/25.8MANCHESTER VOR/DME114.4015W

 
NDB name  Hdg/Dist  Freq  Var  ID
SHAKER HILL065/19.225116WSKR ... -.- .-.
ROLLINS198/33.226016WESG . ... --.
MARSHFIELD003/35.036816WIMR .. -- .-.

Airport Services

Fuel available: 100LL
Airframe service: NONE
Powerplant service: NONE

Runway Information

Runway 4/22

Dimensions: 1600 x 100 ft. / 488 x 30 m
Surface: turf
RUNWAY 4  RUNWAY 22
Traffic pattern: leftleft

Airport Ownership and Management from official FAA records

Ownership: Privately-owned
Owner: CROCKER SNOW
120 TOPSFIELD RD
IPSWICH, MA 01938-1665
Phone 978-395-1961
Manager: CROCKER SNOW
120 TOPSFIELD RD
IPSWICH, MA 01938-1665
Phone 978-356-4422

Airport Operational Statistics

Aircraft based on the field: 1
Single engine airplanes: 1
    

Additional Remarks

FOR CD CTC BOSTON APCH AT 603-594-5554.

Instrument Procedures

There are no published instrument procedures at MA36.

Some nearby airports with instrument procedures:

KBVY - Beverly Regional Airport (6 nm SW)
KLWM - Lawrence Municipal Airport (12 nm W)
KBOS - General Edward Lawrence Logan International Airport (19 nm S)
KBED - Laurence G Hanscom Field Airport (23 nm SW)
KPSM - Portsmouth International Airport at Pease (25 nm N)
 
Loc | Ops | Rwys | IFR | FBO | Links
Com | Nav | Svcs | Stats | Notes
Area around MA36 (Snow Airport)
 
Road maps at: MapQuest Bing Google
 
Aerial photo
No photo
 
Sectional chart

 
Airport distance calculator
Flying to Snow Airport? Find the distance to fly.

From to MA36

Sunrise and sunset
Times for 16-Nov-2019
 Local
(UTC-5)
 Zulu
(UTC)
Morning civil twilight06:0711:07
Sunrise06:3711:37
Sunset16:1921:19
Evening civil twilight16:5021:50

Current date and time
Zulu (UTC)  16-Nov-2019 21:05:43
Local (UTC-5)  16-Nov-2019 16:05:43
 
METAR
KBVY 
6nm SW 
162053Z 33009KT 10SM CLR 01/M18 A3045 RMK AO2 SLP309 T00061183 56004
KLWM 
13nm W 
162054Z 34010KT 10SM CLR M01/M19 A3048 RMK AO2 SLP324 T10061194 55004
KBOS 
19nm S 
162054Z 33013KT 10SM FEW250 02/M19 A3046 RMK AO2 SLP314 T00221189 56005
TAF
KBOS 
19nm S 
161739Z 1618/1724 36012KT P6SM FEW035 FEW250 FM162000 36011KT P6SM FEW250 FM170200 01010G17KT P6SM SKC FM171000 04010G18KT P6SM SCT200 FM171500 06012G21KT P6SM BKN035 FM172000 07014G23KT P6SM BKN030
KBED 
23nm SW 
161739Z 1618/1718 36009KT P6SM SKC FM171100 02006KT P6SM SCT200 FM171300 02006KT P6SM BKN150 FM171500 03007KT P6SM BKN040
KPSM 
24nm N 
161720Z 1618/1718 33012KT P6SM SKC FM162200 35006KT P6SM SKC FM171200 02006KT P6SM SKC
NOTAMs
Click for the latest NOTAMs
NOTAMs are issued by the DoD/FAA and will open in a separate window not controlled by AirNav.

 

 
 

Would you like to see your business listed on this page?

 If your business provides an interesting product or service to pilots, flight crews, aircraft, or users of the Snow Airport, you should consider listing it here.  To start the listing process, click on the button below
 
Add a business
 

Other Pages about Snow Airport

Update a link
 
Copyright © AirNav, LLC. All rights reserved. Privacy Policy  Contact